#timestamp,LO_Frequency,Hit,StdDev 
1512410415.6,286046996.6,N
1512410435.4,286047000.1,N
1512410455.2,286047002.1,N
1512410475.1,286047002.0,N
1512410476.0,286047002.0,N
1512410495.8,286047006.3,Y
1512410515.6,286047008.3,P
1512410535.5,286047004.7,N
1512410555.3,286047005.1,N
1512410575.1,286047006.8,N
1512410595.9,286047007.9,N
1512410615.7,286047008.5,N
1512410635.5,286047004.6,N
1512410655.4,286047008.9,N
1512410675.2,286047004.4,N
1512410695.0,286047002.6,N
1512410695.9,286047002.6,N
1512410715.8,286047002.6,N
1512410735.6,286046999.5,N
1512410755.4,286046995.3,N
1512410775.2,286046994.0,N
1512410795.1,286046995.6,N
1512410796.0,286046995.6,N
1512410815.8,286046995.6,N
1512410835.6,286046998.7,N
1512410855.5,286046997.0,N
1512410875.3,286047002.2,N
1512410895.1,286047003.5,N
1512410915.9,286047003.8,N
1512410935.7,286047000.0,N
1512410955.5,286047002.6,N
1512410975.4,286047003.9,N
1512410995.2,286047002.1,N
1512411015.0,286047005.5,N
1512411015.9,286047005.5,N
1512411035.7,286047005.1,N
1512411055.6,286047005.4,N
1512411075.4,286047004.1,N
1512411095.2,286047007.6,N
1512411115.1,286047006.0,N
1512411116.0,286047006.0,N
1512411135.8,286047000.5,N
1512411155.6,286047000.1,N
1512411175.5,286047003.7,N
1512411195.3,286047002.5,N
1512411215.1,286046999.9,N
1512411235.9,286047000.1,N
1512411255.7,286046999.9,N
1512411275.5,286046997.4,N
1512411295.4,286046999.4,N
1512411315.2,286046997.4,N
1512411335.0,286046998.9,N
1512411335.9,286046998.9,N
1512411355.8,286046995.4,N
1512411375.6,286046994.9,N
1512411395.4,286046999.6,N
1512411415.3,286046996.5,N
1512411435.1,286046999.3,N
1512411436.0,286046999.3,N
1512411455.8,286046996.6,N
1512411475.7,286046999.0,N
1512411495.5,286046996.5,N
1512411515.3,286046997.7,N
1512411535.1,286047000.4,N
1512411555.9,286047002.2,N
1512411575.7,286047000.5,N
1512411595.5,286046999.8,N
1512411615.4,286047003.2,N
1512411635.2,286047004.4,N
1512411655.0,286047002.7,N
1512411655.9,286047002.7,N
1512411675.8,286046998.6,N
1512411695.6,286047000.7,N
1512411715.4,286047003.2,N
1512411735.3,286047000.4,N
1512411755.1,286046995.2,N
1512411756.0,286046995.2,N
1512411775.8,286046992.4,N
1512411795.7,286046991.4,Y
1512411815.5,286046996.1,P
1512411835.3,286046997.0,N
1512411855.2,286046997.5,N
1512411875.9,286046994.6,Y
1512411895.7,286046997.1,P
1512411915.6,286046998.7,P
1512411935.4,286046998.5,N
1512411955.2,286046999.5,N
1512411975.1,286047004.3,Y
1512411976.0,286047004.3,P
1512411995.8,286047007.4,N
1512412015.6,286047007.9,N
1512412035.5,286047011.7,Y
1512412055.3,286047009.7,P
1512412075.1,286047012.6,P
1512412095.9,286047014.1,P
1512412115.7,286047016.4,Y
1512412135.5,286047004.6,P
1512412155.4,286047007.4,N
1512412175.2,286047006.9,N
1512412195.0,286047006.3,Y
1512412195.9,286047006.3,P
1512412215.8,286046998.5,P
1512412235.6,286047002.8,N
1512412255.4,286047002.3,N
1512412275.3,286047004.3,N
1512412295.1,286047003.6,N
1512412296.0,286047003.6,N
1512412315.8,286047005.4,N
1512412335.6,286047007.2,N
1512412355.5,286047003.0,N
1512412375.3,286047004.7,N
1512412395.1,286047003.7,N
1512412415.9,286047003.2,N
1512412435.7,286047004.7,N
1512412455.5,286047006.6,Y
1512412475.4,286047004.5,P
1512412495.2,286047005.3,P
1512412515.0,286047006.1,P
1512412515.9,286047006.1,Y
1512412535.8,286047007.1,P
1512412555.6,286047001.9,N
1512412575.4,286047004.3,N
1512412595.3,286046997.0,N
1512412615.1,286046996.7,N
1512412635.8,286046997.5,N
1512412655.7,286046996.4,N
1512412675.5,286046995.1,N
1512412695.3,286046993.3,N
1512412715.2,286046994.8,N
1512412735.9,286046993.6,N
1512412755.7,286046998.4,N
1512412775.6,286047002.2,N
1512412795.4,286047004.1,N
1512412815.2,286047005.7,N
1512412835.0,286047003.7,N
1512412835.9,286047003.7,N
1512412855.8,286047002.4,N
1512412875.6,286047002.7,N
1512412895.4,286047006.0,N
1512412915.3,286047006.2,N
1512412935.1,286047006.9,N
1512412955.8,286047007.8,N
1512412975.7,286047011.9,N
1512412995.5,286047011.9,N
1512413015.3,286047013.3,N
1512413035.2,286047015.6,N
1512413055.9,286047016.5,N
1512413075.7,286047018.0,N
1512413095.6,286047017.7,N
1512413115.4,286047016.7,N
1512413135.2,286047014.9,N
1512413155.1,286047016.4,N
1512413156.0,286047016.4,N
1512413175.8,286047020.4,N
1512413195.6,286047019.2,N
1512413215.4,286047020.7,N
1512413235.3,286047023.5,N
1512413255.1,286047022.6,N
1512413275.8,286047021.1,N
1512413295.7,286047022.8,N
1512413315.5,286047021.4,N
1512413335.3,286047022.2,Y
1512413355.2,286047009.5,P
1512413375.0,286047010.5,P
1512413375.9,286047010.5,P
1512413395.8,286047007.9,Y
1512413415.6,286046998.8,P
1512413435.4,286046998.6,N
1512413455.2,286046996.5,N
1512413475.1,286046996.5,N
1512413476.0,286046996.5,N
1512413495.8,286046998.5,N
1512413515.6,286046994.5,N
1512413535.5,286046988.9,N
1512413555.3,286046987.8,N
1512413575.1,286046984.6,N
1512413595.9,286046984.0,N
1512413615.7,286046986.8,N
1512413635.5,286046984.0,N
1512413655.4,286046982.8,N
1512413675.2,286046980.2,N
1512413695.0,286046979.7,N
1512413695.9,286046979.7,N
1512413715.8,286046980.2,N
1512413735.6,286046980.4,N
1512413755.4,286046978.1,N
1512413775.2,286046976.2,N
1512413795.1,286046980.2,N
1512413796.0,286046980.2,N
1512413815.8,286046977.5,N
1512413835.6,286046976.2,N
1512413855.5,286046978.8,N
1512413875.3,286046974.9,N
1512413895.1,286046969.6,Y
1512413915.9,286046984.6,P
1512413935.7,286046983.5,P
1512413955.5,286046983.6,P
1512413975.4,286046984.9,Y
1512413995.2,286046996.5,P
